Terug naar catalogus

DGS 2-03

ActiefWetenschapSSO
NORAD 65262·PAYLOAD·🇨🇳 China
Deze satellietnaam is nog niet bevestigd door officiële bronnen.

Gelanceerd Aug 19, 2025 vanaf Jiuquan Satellite Launch Center

Loading…

Volgende Passages (komende 24 uur)

TLE

VersSource: Space-Track

Epoch: Sep 14, 2026, 14:01 UTC

1 65262U 25180D   26257.58427956  .00003483  00000-0  18435-3 0  9997
2 65262  97.5376  24.0322 0014239  16.8887 343.2817 15.16026173 59206

Volg DGS 2-03 in realtime met AllMySat

Download on the App Store